OSCAR 7 (AO-7) 1 07530U 74089B 26163.26418550 -.00000029 00000+0 11075-3 0 9990 2 07530 101.9901 176.4594 0012519 139.2870 231.9396 12.53697997359909 PHASE 3B (AO-10) 1 14129U 83058B 26158.17238870 -.00000194 00000+0 00000+0 0 9992 2 14129 25.9048 221.2242 6014266 112.9115 319.2048 2.05872980295281 UOSAT 2 (UO-11) 1 14781U 84021B 26162.85173535 .00001184 00000+0 12615-3 0 9991 2 14781 97.8055 128.4861 0007136 190.5105 169.5965 14.90770083256334 LUSAT (LO-19) 1 20442U 90005G 26163.29815073 .00000116 00000+0 58249-4 0 9998 2 20442 98.8851 184.9689 0010858 216.1555 143.8896 14.34121799901690 EYESAT A (AO-27) 1 22825U 93061C 26163.17512623 .00000088 00000+0 50602-4 0 9995 2 22825 98.6880 230.5904 0009470 112.6662 247.5523 14.30940991706288 ITAMSAT (IO-26) 1 22826U 93061D 26163.15603373 .00000089 00000+0 50545-4 0 9994 2 22826 98.6828 230.4881 0010076 98.0935 262.1392 14.31367730706594 RADIO ROSTO (RS15) 1 23439U 94085A 26163.06070299 -.00000055 00000+0 -34109-3 0 9999 2 23439 64.8187 311.5072 0155787 4.8242 355.4142 11.27583584295328 JAS-2 (FO-29) 1 24278U 96046B 26163.13568423 .00000015 00000+0 47898-4 0 9993 2 24278 98.5244 12.6999 0350842 109.5060 254.4324 13.53273969472483 TECHSAT 1B (GO-32) 1 25397U 98043D 26163.21762168 .00000055 00000+0 43827-4 0 9998 2 25397 99.0066 155.8509 0000772 174.7863 185.3323 14.24427513450628 ISS (ZARYA) 1 25544U 98067A 26162.96453450 .00008067 00000+0 15344-3 0 9993 2 25544 51.6334 325.9414 0004931 175.6343 184.4689 15.49182446570947 PCSAT (NO-44) 1 26931U 01043C 26162.64152601 .00000072 00000+0 57659-4 0 9995 2 26931 67.0509 258.6152 0006099 264.4327 95.6080 14.31954152289654 SAUDISAT 1C (SO-50) 1 27607U 02058C 26163.30015445 .00000989 00000+0 13385-3 0 9995 2 27607 64.5507 144.1057 0075371 263.3766 95.8757 14.83036938263736 CUTE-1 (CO-55) 1 27844U 03031E 26162.97931317 .00000243 00000+0 12418-3 0 9996 2 27844 98.6735 171.6035 0009162 193.3973 166.6964 14.24332546190935 CUBESAT XI-IV (CO-57) 1 27848U 03031J 26162.96515925 .00000209 00000+0 11102-3 0 9993 2 27848 98.6768 171.3067 0008710 213.1482 146.9152 14.23618048190631 MOZHAETS 4 (RS22) 1 27939U 03042A 26163.33460855 .00000603 00000+0 10111-3 0 9996 2 27939 98.3472 347.5567 0010022 287.0186 197.0572 14.73458230214835 CUBESAT XI-V 1 28895U 05043F 26162.96687193 .00001171 00000+0 19211-3 0 9996 2 28895 98.2978 318.4792 0013339 218.0052 142.0215 14.72617350100987 CUTE-1.7+APD II (CO-65) 1 32785U 08021C 26163.21061662 .00005250 00000+0 33220-3 0 9992 2 32785 97.8272 144.5255 0010282 54.0359 306.1822 15.09408566984442 SEEDS II (CO-66) 1 32791U 08021J 26163.23902191 .00019444 00000+0 61967-3 0 9991 2 32791 97.7515 160.9008 0001815 20.0677 340.0635 15.32585967986532 YUBILEINY (RS30) 1 32953U 08025A 26163.26977990 .00000099 00000+0 63936-3 0 9991 2 32953 82.5049 358.5001 0019050 325.0036 34.9790 12.43179266819087 KKS-1 (KISEKI) 1 33499U 09002H 26163.26408305 .00001256 00000+0 16093-3 0 9990 2 33499 98.1193 85.6283 0006788 314.7383 45.3277 14.83112324935465 SWISSCUBE 1 35932U 09051B 26162.21632552 .00000804 00000+0 16844-3 0 9997 2 35932 98.4041 70.0006 0005629 224.4191 135.6559 14.62470076888283 BEESAT-1 1 35933U 09051C 26163.24945813 .00000781 00000+0 16660-3 0 9999 2 35933 98.3970 70.6975 0003996 236.3504 123.7316 14.61713145888465 ITUPSAT1 1 35935U 09051E 26162.20832686 .00000614 00000+0 13683-3 0 9996 2 35935 98.4055 68.8386 0006132 256.4621 103.5895 14.60431670887865 XIWANG-1 (HOPE-1) 1 36122U 09072B 26163.22793956 .00000400 00000+0 11636-2 0 9995 2 36122 100.4019 117.1389 0006804 244.0198 116.0214 13.16440697792359 O/OREOS (USA 219) 1 37224U 10062C 26163.24036914 .00002327 00000+0 22533-3 0 9995 2 37224 71.9710 91.5441 0012424 73.8803 286.3735 14.93724392115905 JUGNU 1 37839U 11058B 26163.16288837 .00000406 00000+0 72629-4 0 9995 2 37839 19.9621 338.9523 0018583 20.9727 136.2305 14.13775454758310 SRMSAT 1 37841U 11058D 26162.51581192 .00000355 00000+0 48954-4 0 9993 2 37841 19.9715 93.7945 0011909 141.4141 27.1536 14.11574372757019 STRAND-1 1 39090U 13009E 26163.25210112 .00000272 00000+0 10585-3 0 9998 2 39090 98.3921 343.6080 0007529 242.0462 117.9963 14.37160588696350 ZACUBE-1 (TSHEPISOSAT) 1 39417U 13066B 26163.14146462 .00003046 00000+0 23862-3 0 9992 2 39417 97.8084 125.4510 0040270 265.3483 94.3141 15.01158093679977 GOMX-1 1 39430U 13066Q 26163.28321212 .00001775 00000+0 27070-3 0 9992 2 39430 97.6492 4.0559 0130190 93.1134 268.4979 14.69441853669197 CUBEBUG-2 (LO-74) 1 39440U 13066AA 26163.10615375 .00003560 00000+0 33078-3 0 9999 2 39440 97.8899 112.0627 0058835 45.4296 315.1704 14.93719997676234 FUNCUBE-1 (AO-73) 1 39444U 13066AE 26162.55441071 .00005554 00000+0 34659-3 0 9992 2 39444 97.8262 133.8824 0035145 220.5848 139.2760 15.09420112678819 UWE-3 1 39446U 13066AG 26163.13573377 .00003881 00000+0 33490-3 0 9997 2 39446 97.8685 119.1754 0048384 337.9984 21.9160 14.96983655676823 UNISAT-6 1 40012U 14033C 26163.22513884 .00003057 00000+0 33075-3 0 9994 2 40012 97.7868 316.0249 0046404 85.2334 275.4179 14.88220526645426 DUCHIFAT-1 1 40021U 14033M 26163.09548070 .00095136 00000+0 10168-2 0 9990 2 40021 98.0477 221.5443 0003958 124.7307 235.4323 15.63580933654958 QB50P1 1 40025U 14033R 26163.27290574 .00008177 00000+0 40334-3 0 9995 2 40025 98.0962 174.0743 0007350 234.6928 125.3617 15.18187953652288 LILACSAT-2 1 40908U 15049K 26163.17664920 .00016565 00000+0 28384-3 0 9993 2 40908 97.4657 199.8278 0005286 269.0958 90.9688 15.51281361594972 FOX-1A (AO-85) 1 40967U 15058D 26162.71824684 .00002264 00000+0 20997-3 0 9995 2 40967 64.7758 295.9784 0130128 58.7261 302.6519 14.90943463112758 CAS-2T & KS-1Q 1 41847U 16066G 26163.18452981 .00001632 00000+0 23593-3 0 9995 2 41847 98.3821 238.9779 0342627 144.6097 217.8365 14.44678480504071 RADFXSAT (FOX-1B) 1 43017U 17073E 26163.18070044 .00010038 00000+0 43795-3 0 9997 2 43017 97.4717 30.4982 0150347 346.5871 13.1381 15.12639688464631 DIWATA-2B 1 43678U 18084H 26163.23494414 .00002189 00000+0 17908-3 0 9995 2 43678 98.1180 359.2284 0012241 186.2057 173.9016 15.00428405415476 ES'HAIL 2 1 43700U 18090A 26163.26991273 .00000159 00000+0 00000+0 0 9992 2 43700 0.0182 327.8391 0001533 149.5732 266.1744 1.00268282 27629 FOX-1CLIFF (AO-95) 1 43770U 18099N 26163.16185761 .00012073 00000+0 46305-3 0 9994 2 43770 97.4395 223.4266 0008513 16.6170 343.5346 15.26608215412453 ITASAT 1 43786U 18099AE 26163.08115618 .00006413 00000+0 30911-3 0 9993 2 43786 97.4034 214.6947 0012663 18.3409 341.8279 15.18993689412137 JY1SAT (JO-97) 1 43803U 18099AX 26163.13681758 .00015570 00000+0 48284-3 0 9998 2 43803 97.4133 225.9535 0004126 287.1205 72.9585 15.33493153412859 UWE-4 1 43880U 18111E 26163.03704896 .00037924 00000+0 78108-3 0 9991 2 43880 97.5852 91.1918 0006446 4.5905 355.5402 15.45812047409984 TIANYAN 01 1 44881U 19093C 26163.26554447 .00000214 00000+0 30201-4 0 9998 2 44881 97.7533 235.6173 0014961 101.3833 258.9064 14.86509371350688 RS-44 & BREEZE-KM R/B 1 44909U 19096E 26163.23612107 .00000031 00000+0 75545-4 0 9994 2 44909 82.5218 342.9956 0217970 155.7087 205.4479 12.79748788301715 SALSAT 1 46495U 20068K 26163.23969061 .00008047 00000+0 28202-3 0 9993 2 46495 97.8848 166.0033 0008469 328.8216 31.2520 15.29730151314601 XW-3 (CAS-9) 1 50466U 21131B 26163.26468021 .00000401 00000+0 13761-3 0 9991 2 50466 98.4974 255.6807 0005289 107.7226 252.4541 14.41352915234407 GREENCUBE (IO-117) 1 53109U 22080E 26152.46502029 -.00000003 00000+0 00000+0 0 9996 2 53109 70.1435 303.7143 0008869 293.3663 66.6064 6.42583280 91055 UMKA 1 (RS40S) 1 57172U 23091G 26163.09332433 .00005454 00000+0 25026-3 0 9997 2 57172 97.5058 221.8099 0014043 133.5490 226.6915 15.20758521163238 CUBESX-HSE 3 (RS42S) 1 57178U 23091N 26163.27243601 .00014944 00000+0 49860-3 0 9997 2 57178 97.5100 228.7976 0012125 109.7243 250.5307 15.31092968163679 MONITOR-3 (RS58S) 1 57180U 23091Q 26163.22062193 .00011285 00000+0 41792-3 0 9991 2 57180 97.5092 226.6300 0013123 116.0548 244.2043 15.27743950163539 MONITOR-4 (RS57S) 1 57182U 23091S 26163.26545173 .00011149 00000+0 41178-3 0 9998 2 57182 97.5086 226.6462 0013102 116.2107 244.0481 15.27834414163544 MONITOR-2 (RS39S) 1 57184U 23091U 26163.23996652 .00005511 00000+0 26715-3 0 9995 2 57184 97.5079 221.5545 0012574 126.1672 234.0728 15.18865801163203 SVYATOBOR 1 (RS60S) 1 57187U 23091X 26163.20878921 .00009731 00000+0 37453-3 0 9992 2 57187 97.5097 226.9981 0010908 109.2791 250.9628 15.26531796163558 VIZARD-METEO (RS38S) 1 57189U 23091Z 26163.26150292 .00018600 00000+0 53391-3 0 9998 2 57189 97.5100 232.6478 0008545 92.3953 267.8269 15.35872791163939 POLYTECH-UNIVERSE 3 (R*) 1 57191U 23091AB 26163.20194962 .00005073 00000+0 24445-3 0 9995 2 57191 97.5055 221.0215 0016571 142.6851 217.5538 15.19066591163190 UTMN 2 (RS27S) 1 57203U 23091AP 26163.22739371 .00013744 00000+0 44745-3 0 9999 2 57203 97.5096 230.3797 0009461 98.4428 261.7886 15.31932153163787 KUZGTU 1 (RS47S) 1 57217U 23091AV 26163.25920279 .00013765 00000+0 47891-3 0 9994 2 57217 97.5074 227.6890 0012351 113.1915 247.0627 15.29751479163629 SONATE-2 1 59112U 24043Q 26162.93769449 .00035538 00000+0 46836-3 0 9992 2 59112 97.5519 313.0138 0006785 213.3126 146.7703 15.58325832127076 MESAT1 1 60209U 24125G 26163.11235142 .00051467 00000+0 57300-3 0 9998 2 60209 97.2303 20.4818 0009017 223.0397 137.0157 15.62655675108774 OOV-CUBE (TUBSAT-30) 1 60240U 24128F 26162.59923854 .00001977 00000+0 15980-3 0 9990 2 60240 61.9950 245.0577 0045327 132.4986 227.9949 15.02751187105272 COLIBRI-S (RS67S) 1 61746U 24199M 26163.27717862 .00022898 00000+0 44622-3 0 9996 2 61746 97.3007 37.0879 0006290 302.7927 57.2717 15.47525018136651 HORS 3 (RS81S) 1 61753U 24199U 26163.26257668 .00039249 00000+0 59260-3 0 9998 2 61753 97.2992 39.0069 0003842 308.7583 51.3328 15.54637174136791 HORS 4 (RS82S) 1 61754U 24199V 26163.23784581 .00050649 00000+0 64396-3 0 9998 2 61754 97.2939 40.1516 0002957 292.4759 67.6184 15.59229398136872 ARCTICSAT 1 (RS74S) 1 61762U 24199AD 26163.62499650 .02786064 23878-5 12076-2 0 9990 2 61762 97.2839 47.6687 0008438 225.1612 134.8993 16.22561056137396 SIT-2086 1 61764U 24199AF 26163.23483677 .00037081 00000+0 59954-3 0 9990 2 61764 97.2948 39.4724 0004326 278.4874 81.5889 15.52749824133664 HYPERVIEW 1G (RS66S) 1 61772U 24199AP 26163.23464103 .00145527 00000+0 98644-3 0 9996 2 61772 97.2889 42.7085 0002694 246.8852 113.2129 15.74557070133894 ALTAIR (RS65S) 1 61779U 24199AW 26163.29425537 .00011448 00000+0 31838-3 0 9993 2 61779 97.3044 32.6781 0011565 330.8927 29.1671 15.36938480136368 ASRTU-1 (AO-123) 1 61781U 24199AY 26163.27788434 .00008043 00000+0 23408-3 0 9993 2 61781 97.3014 31.9935 0012770 333.5097 26.5493 15.35607275133171 SAMSAT-IONOSPHERE (RS7*) 1 61784U 24199BB 26163.24058294 .00048053 00000+0 65906-3 0 9991 2 61784 97.2961 39.0134 0005968 302.8745 57.1936 15.57198850136795 RTU MIREA 1 (RS51S) 1 61785U 24199BC 26163.27581242 .00058614 00000+0 70735-3 0 9999 2 61785 97.2951 39.8563 0005541 294.9444 65.1237 15.60560348133703 TEVEL2-4 1 63213U 25052D 26163.22634011 .00019646 00000+0 59033-3 0 9994 2 63213 97.3917 59.6110 0004731 112.7549 247.4195 15.34441293 69350 TEVEL2-5 1 63214U 25052E 26163.18106670 .00020078 00000+0 60654-3 0 9997 2 63214 97.3921 59.5143 0004629 114.2395 245.9332 15.34269187 69348 TEVEL2-6 1 63215U 25052F 26163.19328240 .00020179 00000+0 61028-3 0 9996 2 63215 97.3921 59.5115 0004505 113.2672 246.9046 15.34232330 69341 TEVEL2-1 1 63217U 25052H 26162.95960718 .00016082 00000+0 49545-3 0 9991 2 63217 97.3891 58.9077 0004509 123.4340 236.7334 15.33693147 69295 TEVEL2-3 1 63218U 25052J 26163.21540340 .00019135 00000+0 58756-3 0 9993 2 63218 97.3892 59.1848 0004498 123.1530 237.0145 15.33760310 69337 TEVEL2-2 1 63219U 25052K 26162.95994952 .00016262 00000+0 50083-3 0 9999 2 63219 97.3890 58.9106 0004449 123.8478 236.3189 15.33701780 69295 TEVEL2-9 1 63237U 25052AD 26163.19195162 .00017823 00000+0 58280-3 0 9993 2 63237 97.3947 58.5267 0007288 144.2630 215.9100 15.31748226 69260 TEVEL2-7 1 63238U 25052AE 26162.64384617 .00015266 00000+0 50453-3 0 9991 2 63238 97.3956 57.8996 0007384 146.6025 213.5683 15.31438086 69173 TEVEL2-8 1 63239U 25052AF 26163.17476619 .00016802 00000+0 55488-3 0 9995 2 63239 97.3951 58.4063 0007475 146.0802 214.0919 15.31439720 69252 INNOSAT 16 (RS92S7) 1 64878U 25155C 26163.27903384 .00005707 00000+0 22857-3 0 9990 2 64878 97.4555 130.4224 0009952 192.7820 167.3167 15.25406125 79929 GEOSCAN 6 (RS92S6) 1 64879U 25155D 26163.27679807 .00010336 00000+0 35748-3 0 9998 2 64879 97.4548 131.8097 0007693 178.6375 181.4887 15.30062191 80018 GEOSCAN 1 (RS92S1) 1 64880U 25155E 26163.28114487 .00011411 00000+0 38727-3 0 9994 2 64880 97.4543 131.9577 0007646 178.2636 181.8633 15.30649601 80024 239ALFEROV (RS61S) 1 64881U 25155F 26163.25775201 .00015541 00000+0 49208-3 0 9993 2 64881 97.4543 132.4792 0007347 174.9408 185.1909 15.32811361 80050 GEOSCAN 2 (RS92S2) 1 64890U 25155Q 26163.27569729 .00011283 00000+0 37978-3 0 9991 2 64890 97.4541 132.1029 0007518 164.6876 195.4594 15.30920693 80032 GEOSCAN 5 (RS92S5) 1 64891U 25155R 26163.24779847 .00015022 00000+0 47117-3 0 9994 2 64891 97.4536 132.6048 0006045 178.2453 181.8812 15.33129400 80064 GEOSCAN 4 (RS92S4) 1 64892U 25155S 26163.23248241 .00015165 00000+0 47339-3 0 9997 2 64892 97.4539 132.6364 0006089 178.2585 181.8680 15.33280272 80061 GEOSCAN 3 (RS92S3) 1 64893U 25155T 26163.23959031 .00018685 00000+0 54763-3 0 9993 2 64893 97.4529 133.0591 0005986 176.1696 183.9594 15.35235100 80095 INNOSAT 3 (RS92S0) 1 64894U 25155U 26163.19161107 .00040921 00000+0 91147-3 0 9993 2 64894 97.4477 134.5688 0005682 163.3711 196.7724 15.43484692 80199 KNACKSAT-2 1 67683U 98067XZ 26162.71234266 .00046941 00000+0 58268-3 0 9993 2 67683 51.6308 322.0071 0009845 191.1847 168.8928 15.59478995 19427